Location: Harwich
(41.7160°N, 69.9939°W)
Time: 14:01:02
(UTC+02:00)

PRISM - Visible Passes

Search period start: 17 September 2024 00:00
Search period end: 27 September 2024 00:00
Orbit: 479 x 492 km, 98.2° (Epoch: 16 September)

Date Brightness Start Highest point End Pass type
(mag) Time Alt. Az. Time Alt. Az. Time Alt. Az.
17 Sep ? 03:55:31 12° NNW 03:55:31 12° NNW 03:55:53 10° NNW visible
18 Sep ? 03:31:14 14° N 03:31:14 14° N 03:31:48 10° N visible
19 Sep ? 03:06:51 13° N 03:06:51 13° N 03:07:20 10° N visible
20 Sep ? 02:42:22 10° NNE 02:42:22 10° NNE 02:42:23 10° NNE visible
